Terug naar catalogus

DMSP 5D-3 F18 DEB

ActiefSSO
NORAD 35954·DEBRIS·🇺🇸 United States

Gelanceerd Oct 18, 2009 vanaf Vandenberg Space Force Base

Loading…

Volgende Passages (komende 24 uur)

TLE

VersSource: Space-Track

Epoch: Sep 14, 2026, 22:58 UTC

1 35954U 09057D   26257.95715866  .00001282  00000-0  52805-3 0  9992
2 35954  98.6446 247.6419 0003794 188.4087 191.5366 14.28629938875145

Volg DMSP 5D-3 F18 DEB in realtime met AllMySat

Download on the App Store